ONEWEB-0134 (47280 NORAD) Tracking and Keplerian Element Data

This shows tracking and keplerian element data for the satellite.

Feedback or suggestion? Click here.




ElementValue
Catalog47280
NameONEWEB-0134
Epoch Orbit178
Epoch Day60.91667824
Epoch Year2021
RAAN16.1872
Inclination87.6306
Eccentricity0.0014166
Argument of Perigee34.7923
Mean Anonmoly312.1152
Mean Motion14.03027049
Decay Rate-0.00025579
L11 47280U 20100Y 21060.91667824 -.00025579 00000-0 -16540-1 0 9993
L22 47280 87.6306 16.1872 0014166 34.7923 312.1152 14.03027049 1785

Live tracking and technical data element details for ONEWEB-0134 (NORAD 47280). ONEWEB-0134 can be tracked NOW for your location showing map with azimuth and elevation plus other details from your city location.

Track the satellite on the map from your city or location and see movement details for azimuth, elevation, latitude, longitude, range, height, and movement on the map or in text.







IsCatalogInMostPopularTable: catalog: 47280, numindb: 21
Update: records affected: 1



GetName: 47280 ONEWEB-0134

Hit Count: updated at: Tue, 02 Mar 2021 13:22:32 GMT